Simultaneous Nadir Overpasses (SNOs) Predictions

Prediction of SNOs between GOES-14 and NPP Satellite Orbit:

Table of predicted SNOs for the next 14.0 days since TLE Epoch: 5/4/2024
Index Date Time (GOES-14) GOES-14 Lat,Lon NPP Lat,Lon Distance(km) Time Diff (sec)
1 05/05/2024 08:46:17 0.16,-108.65 0.41,-109.90 142.50 80
2 05/06/2024 08:24:52 0.17,-108.65 -0.59,-105.37 374.71 80
3 05/07/2024 20:46:47 -0.15,-108.67 -0.61,-110.67 228.41 80
4 05/08/2024 20:30:42 -0.16,-108.67 0.39,-106.13 289.10 80
5 05/10/2024 08:52:29 0.13,-108.68 0.74,-111.41 311.29 80
6 05/11/2024 08:31:03 0.15,-108.68 -0.26,-106.87 205.71 80
7 05/12/2024 20:52:59 -0.13,-108.68 -0.92,-112.17 398.47 80
8 05/13/2024 20:36:53 -0.14,-108.69 0.09,-107.64 119.23 80
9 05/15/2024 08:56:01 0.12,-108.70 1.04,-112.92 479.80 80
10 05/16/2024 08:37:14 0.14,-108.70 0.09,-108.37 37.74 80
